• In Romania
  • List of Countries
  • For 7 days
  • Water Temperature
  • Satellite Maps
  • Weather Map
  • Weather Widgets
  • user-avatar
    Login

    Hourly Weather Brisbane

    Today, 17 January, Tuesday

    Time Temperature Precipitation Wind Pressure Humidity
    00:00 +24°C° 0 mm 1 mps 760 mmHg 93%
    01:00 +23°C° 0 mm 1 mps 760 mmHg 94%
    02:00 +23°C° 0 mm 1 mps 760 mmHg 94%
    03:00 +23°C° 0 mm 1 mps 760 mmHg 94%
    04:00 +23°C° 0 mm 1 mps 760 mmHg 94%
    05:00 +24°C° 0 mm 1 mps 760 mmHg 90%
    06:00 +25°C° 0 mm 1 mps 760 mmHg 85%
    07:00 +27°C° 0 mm 1 mps 761 mmHg 81%
    08:00 +29°C° 0 mm 1 mps 761 mmHg 73%
    09:00 +30°C° 0 mm 1 mps 761 mmHg 65%
    10:00 +32°C° 0 mm 2 mps 761 mmHg 58%
    11:00 +32°C° 0 mm 2 mps 760 mmHg 56%
    12:00 +34°C° 0 mm 3 mps 760 mmHg 54%
    13:00 +35°C° 0 mm 4 mps 759 mmHg 51%
    14:00 +34°C° 0 mm 4 mps 759 mmHg 54%
    15:00 +34°C° 0 mm 4 mps 758 mmHg 56%
    16:00 +34°C° 0 mm 5 mps 758 mmHg 59%
    17:00 +32°C° 0 mm 5 mps 758 mmHg 65%
    18:00 +29°C° 0 mm 4 mps 759 mmHg 72%
    19:00 +27°C° 0 mm 4 mps 759 mmHg 78%
    20:00 +26°C° 0 mm 4 mps 759 mmHg 82%
    21:00 +26°C° 0 mm 3 mps 760 mmHg 86%
    22:00 +25°C° 0 mm 3 mps 760 mmHg 89%
    23:00 +24°C° 0 mm 3 mps 760 mmHg 91%

    Tomorrow, 18 January, Wednesday

    Time Temperature Precipitation Wind Pressure Humidity
    00:00 +24°C° 0 mm 3 mps 759 mmHg 92%
    01:00 +22°C° 0 mm 3 mps 759 mmHg 93%
    02:00 +22°C° 0 mm 3 mps 759 mmHg 93%
    03:00 +22°C° 0 mm 3 mps 759 mmHg 93%
    04:00 +22°C° 0 mm 3 mps 759 mmHg 93%
    05:00 +24°C° 0 mm 3 mps 759 mmHg 88%
    06:00 +25°C° 0 mm 3 mps 759 mmHg 83%
    07:00 +26°C° 0 mm 3 mps 759 mmHg 78%
    08:00 +28°C° 0 mm 3 mps 759 mmHg 67%
    09:00 +30°C° 0 mm 3 mps 759 mmHg 57%
    10:00 +33°C° 0 mm 3 mps 759 mmHg 47%
    11:00 +35°C° 0 mm 3 mps 758 mmHg 43%
    12:00 +37°C° 0 mm 4 mps 757 mmHg 38%
    13:00 +40°C° 0 mm 4 mps 756 mmHg 34%
    14:00 +38°C° 0 mm 4 mps 756 mmHg 38%
    15:00 +37°C° 0 mm 5 mps 755 mmHg 41%
    16:00 +38°C° 0 mm 6 mps 754 mmHg 45%
    17:00 +35°C° 0 mm 6 mps 755 mmHg 52%
    18:00 +33°C° 0 mm 6 mps 755 mmHg 60%
    19:00 +30°C° 0 mm 6 mps 755 mmHg 67%
    20:00 +30°C° 0 mm 5 mps 756 mmHg 69%
    21:00 +29°C° 0 mm 5 mps 756 mmHg 71%
    22:00 +28°C° 0 mm 5 mps 756 mmHg 74%
    23:00 +28°C° 0 mm 5 mps 756 mmHg 74%

    Day after tomorrow, 19 January, Thursday

    Time Temperature Precipitation Wind Pressure Humidity
    00:00 +27°C° 0 mm 4 mps 755 mmHg 74%
    01:00 +27°C° 0 mm 4 mps 755 mmHg 74%
    02:00 +27°C° 0 mm 4 mps 754 mmHg 73%
    03:00 +27°C° 0 mm 4 mps 754 mmHg 72%
    04:00 +27°C° 0 mm 4 mps 754 mmHg 70%
    05:00 +27°C° 0 mm 3 mps 755 mmHg 70%
    06:00 +28°C° 0 mm 3 mps 756 mmHg 70%
    07:00 +28°C° 0 mm 3 mps 756 mmHg 70%
    08:00 +29°C° 0 mm 3 mps 756 mmHg 66%
    09:00 +31°C° 0 mm 3 mps 756 mmHg 62%
    10:00 +33°C° 0 mm 3 mps 756 mmHg 58%
    11:00 +35°C° 0 mm 3 mps 756 mmHg 56%
    12:00 +36°C° 0 mm 4 mps 755 mmHg 53%
    13:00 +37°C° 0 mm 4 mps 755 mmHg 51%
    14:00 +36°C° 0.2 mm 5 mps 754 mmHg 55%
    15:00 +35°C° 0.2 mm 6 mps 754 mmHg 59%
    16:00 +34°C° 0.2 mm 7 mps 754 mmHg 63%
    17:00 +32°C° 0.7 mm 6 mps 754 mmHg 71%
    18:00 +29°C° 0.7 mm 6 mps 755 mmHg 79%
    19:00 +27°C° 0.7 mm 6 mps 755 mmHg 87%
    20:00 +27°C° 0.8 mm 5 mps 756 mmHg 88%
    21:00 +26°C° 0.8 mm 5 mps 756 mmHg 90%
    22:00 +26°C° 0.8 mm 5 mps 757 mmHg 91%
    23:00 +26°C° 0.2 mm 5 mps 756 mmHg 91%

    20 January, Friday

    Time Temperature Precipitation Wind Pressure Humidity
    00:00 +26°C° 0.2 mm 4 mps 756 mmHg 91%
    01:00 +26°C° 0.2 mm 4 mps 756 mmHg 91%
    02:00 +26°C° 0 mm 3 mps 755 mmHg 91%
    03:00 +25°C° 0 mm 3 mps 755 mmHg 91%
    04:00 +25°C° 0 mm 2 mps 755 mmHg 92%
    05:00 +26°C° 0 mm 2 mps 756 mmHg 88%
    06:00 +27°C° 0 mm 2 mps 756 mmHg 85%
    07:00 +27°C° 0 mm 2 mps 756 mmHg 82%
    08:00 +29°C° 0 mm 2 mps 756 mmHg 75%
    09:00 +30°C° 0 mm 2 mps 756 mmHg 68%
    10:00 +32°C° 0 mm 2 mps 756 mmHg 62%
    11:00 +34°C° 0 mm 2 mps 755 mmHg 60%
    12:00 +34°C° 0 mm 3 mps 754 mmHg 58%
    13:00 +35°C° 0 mm 3 mps 754 mmHg 57%
    14:00 +35°C° 0.2 mm 4 mps 753 mmHg 57%
    15:00 +36°C° 0.2 mm 4 mps 752 mmHg 56%
    16:00 +36°C° 0.2 mm 4 mps 752 mmHg 56%
    17:00 +34°C° 0.3 mm 5 mps 752 mmHg 63%
    18:00 +33°C° 0.3 mm 5 mps 752 mmHg 70%
    19:00 +30°C° 0.3 mm 5 mps 753 mmHg 77%
    20:00 +30°C° 0 mm 5 mps 753 mmHg 76%
    21:00 +29°C° 0 mm 5 mps 753 mmHg 75%
    22:00 +29°C° 0 mm 5 mps 753 mmHg 74%
    23:00 +28°C° 0.4 mm 5 mps 752 mmHg 77%

    21 January, Saturday

    Time Temperature Precipitation Wind Pressure Humidity
    00:00 +28°C° 0.4 mm 5 mps 752 mmHg 80%
    01:00 +27°C° 0.4 mm 4 mps 752 mmHg 82%
    02:00 +27°C° 0 mm 5 mps 752 mmHg 81%
    03:00 +27°C° 0 mm 5 mps 751 mmHg 81%
    04:00 +27°C° 0 mm 5 mps 751 mmHg 80%
    05:00 +27°C° 0.4 mm 5 mps 752 mmHg 79%
    06:00 +28°C° 0.4 mm 5 mps 752 mmHg 79%
    07:00 +28°C° 0.4 mm 4 mps 753 mmHg 78%
    08:00 +32°C° 0 mm 4 mps 753 mmHg 69%
    09:00 +34°C° 0 mm 4 mps 753 mmHg 60%
    10:00 +36°C° 0 mm 4 mps 753 mmHg 51%
    11:00 +36°C° 0.5 mm 5 mps 753 mmHg 53%
    12:00 +36°C° 0.5 mm 6 mps 753 mmHg 56%
    13:00 +36°C° 0.5 mm 7 mps 753 mmHg 59%
    14:00 +34°C° 1 mm 7 mps 753 mmHg 64%
    15:00 +33°C° 1 mm 7 mps 753 mmHg 69%
    16:00 +30°C° 1 mm 7 mps 754 mmHg 75%
    17:00 +29°C° 0.3 mm 7 mps 754 mmHg 78%
    18:00 +28°C° 0.3 mm 7 mps 755 mmHg 80%
    19:00 +27°C° 0.3 mm 7 mps 756 mmHg 83%
    20:00 +27°C° 0 mm 6 mps 756 mmHg 83%
    21:00 +27°C° 0 mm 6 mps 757 mmHg 82%
    22:00 +26°C° 0 mm 6 mps 757 mmHg 82%
    23:00 +26°C° 0 mm 6 mps 757 mmHg 81%

    22 January, Sunday

    Time Temperature Precipitation Wind Pressure Humidity
    00:00 +26°C° 0 mm 6 mps 756 mmHg 80%
    01:00 +26°C° 0 mm 6 mps 756 mmHg 80%
    02:00 +24°C° 0 mm 6 mps 756 mmHg 80%
    03:00 +25°C° 0 mm 5 mps 757 mmHg 80%
    04:00 +25°C° 0 mm 5 mps 757 mmHg 80%
    05:00 +24°C° 0 mm 6 mps 757 mmHg 78%
    06:00 +26°C° 0 mm 6 mps 758 mmHg 75%
    07:00 +26°C° 0 mm 7 mps 758 mmHg 73%
    08:00 +27°C° 0 mm 7 mps 758 mmHg 70%
    09:00 +27°C° 0 mm 6 mps 758 mmHg 66%
    10:00 +28°C° 0 mm 6 mps 758 mmHg 63%
    11:00 +29°C° 0 mm 6 mps 758 mmHg 61%
    12:00 +29°C° 0 mm 6 mps 758 mmHg 58%
    13:00 +30°C° 0 mm 7 mps 757 mmHg 56%
    14:00 +30°C° 0 mm 7 mps 757 mmHg 56%
    15:00 +30°C° 0 mm 7 mps 757 mmHg 56%
    16:00 +30°C° 0 mm 7 mps 757 mmHg 57%
    17:00 +28°C° 0 mm 6 mps 758 mmHg 61%
    18:00 +27°C° 0 mm 6 mps 758 mmHg 65%
    19:00 +26°C° 0 mm 5 mps 759 mmHg 69%
    20:00 +25°C° 0 mm 5 mps 759 mmHg 73%
    21:00 +23°C° 0 mm 5 mps 760 mmHg 78%
    22:00 +22°C° 0 mm 4 mps 760 mmHg 82%
    23:00 +22°C° 0 mm 4 mps 760 mmHg 84%
    Show more